Weather History for KY51 - December, 2012

Change the Weather History Date:

Wednesday, December 5, 2012

  Actual Average (KLSE) Record (KLSE)
Temperature  
Mean Temperature 25 °F 25 °F  
Max Temperature 33 °F 33 °F 67 °F (1998)
Min Temperature 17 °F 18 °F -5 °F (1880)
Degree Days  
Heating Degree Days 40 40  
Month to date heating degree days 194  
Since 1 July heating degree days 1694  
Cooling Degree Days 0 0  
Month to date cooling degree days 0  
Year to date cooling degree days 782  
Moisture  
Dew Point 17 °F    
Average Humidity 65    
Maximum Humidity 86    
Minimum Humidity 48    
Precipitation  
Precipitation 0.00 in 0.05 in 1.40 in (1879)
Month to date precipitation 0.27  
Year to date precipitation 31.97  
Snow  
Snow 0.00 in 0.40 in 3.80 in (1925)
Month to date snowfall 1.8  
Since 1 July snowfall 6.1  
Snow Depth -    
Sea Level Pressure  
Sea Level Pressure 30.27 in    
Wind  
Wind Speed 8 mph (ESE)    
Max Wind Speed 20 mph    
Max Gust Speed 22 mph    
Visibility 10 miles    
Events      
T = Trace of Precipitation, MM = Missing Value Source: NWS Daily Summary

Daily Weather History Graph

Daily Weather History Graph

Search for Another Location

Airport or City:

Trip Planner

Search our weather history database for the weather conditions in past years. The results will help you decide how hot, cold, wet, or windy it might be!

Date:

Astronomy

Dec. 05, 2012 Rise Set
Actual Time 7:21 AM CST 4:27 PM CST
Civil Twilight 6:49 AM CST 4:59 PM CST
Nautical Twilight 6:13 AM CST 5:35 PM CST
Astronomical Twilight 5:38 AM CST 6:10 PM CST
Moon 11:26 PM CST (12/5) 11:36 AM CST (12/5)
Length of Visible Light 10h 10m
Length of Day
9h 05m
Waning Gibbous, 59% of the Moon is Illuminated
Dec 5
Waning Gibbous
Dec 6
Last Quarter
Dec 13
New
Dec 19
First Quarter
Dec 28
Full

Hourly Weather History & Observations

Time (CST) Temp. Windchill Dew Point Humidity Pressure Visibility Wind Dir Wind Speed Gust Speed Precip Events Conditions
12:15 AM 23.0 °F 15.8 °F 14.0 °F 68% 30.34 in 10.0 mi North 5.8 mph - N/A   Clear
12:35 AM 23.0 °F 17.0 °F 14.0 °F 68% 30.35 in 10.0 mi North 4.6 mph - N/A   Clear
12:55 AM 21.2 °F 14.9 °F 14.0 °F 74% 30.36 in 10.0 mi North 4.6 mph - N/A   Clear
1:15 AM 23.0 °F 18.4 °F 14.0 °F 68% 30.37 in 10.0 mi North 3.5 mph - N/A   Clear
1:35 AM 21.2 °F 13.6 °F 14.0 °F 74% 30.36 in 10.0 mi North 5.8 mph - N/A   Clear
1:55 AM 21.2 °F 12.6 °F 14.0 °F 74% 30.37 in 10.0 mi North 6.9 mph - N/A   Clear
2:15 AM 21.2 °F 11.7 °F 14.0 °F 74% 30.36 in 10.0 mi NNE 8.1 mph - N/A   Clear
2:35 AM 21.2 °F 14.9 °F 14.0 °F 74% 30.37 in 10.0 mi North 4.6 mph - N/A   Clear
2:55 AM 21.2 °F 16.4 °F 14.0 °F 74% 30.37 in 10.0 mi North 3.5 mph - N/A   Clear
3:15 AM 19.4 °F 14.3 °F 14.0 °F 80% 30.37 in 10.0 mi NE 3.5 mph - N/A   Clear
3:35 AM 19.4 °F 14.3 °F 14.0 °F 80% 30.37 in 10.0 mi ENE 3.5 mph - N/A   Clear
3:55 AM 19.4 °F 12.8 °F 14.0 °F 80% 30.37 in 10.0 mi NNE 4.6 mph - N/A   Clear
4:15 AM 19.4 °F 14.3 °F 14.0 °F 80% 30.37 in 10.0 mi ENE 3.5 mph - N/A   Clear
4:35 AM 17.6 °F 8.2 °F 14.0 °F 86% 30.37 in 10.0 mi NE 6.9 mph - N/A   Clear
4:55 AM 19.4 °F 12.8 °F 14.0 °F 80% 30.37 in 10.0 mi NE 4.6 mph - N/A   Clear
5:15 AM 19.4 °F 11.5 °F 14.0 °F 80% 30.38 in 10.0 mi ENE 5.8 mph - N/A   Clear
5:35 AM 19.4 °F 14.3 °F 14.0 °F 80% 30.38 in 10.0 mi East 3.5 mph - N/A   Clear
5:55 AM 17.6 °F 9.3 °F 12.2 °F 79% 30.38 in 10.0 mi ESE 5.8 mph - N/A   Clear
6:15 AM 19.4 °F 11.5 °F 14.0 °F 80% 30.38 in 10.0 mi ESE 5.8 mph - N/A   Clear
6:35 AM 17.6 °F 9.3 °F 14.0 °F 86% 30.38 in 10.0 mi SE 5.8 mph - N/A   Clear
6:55 AM 19.4 °F 12.8 °F 14.0 °F 80% 30.38 in 10.0 mi East 4.6 mph - N/A   Clear
8:55 AM 23.0 °F 15.8 °F 15.8 °F 74% 30.39 in 10.0 mi ESE 5.8 mph - N/A   Clear
9:15 AM 23.0 °F 13.9 °F 15.8 °F 74% 30.38 in 10.0 mi ESE 8.1 mph - N/A   Clear
9:35 AM 24.8 °F 14.0 °F 17.6 °F 74% 30.38 in 10.0 mi ESE 11.5 mph - N/A   Clear
9:55 AM 24.8 °F 13.4 °F 15.8 °F 69% 30.38 in 10.0 mi ESE 12.7 mph - N/A   Clear
10:15 AM 26.6 °F 15.2 °F 17.6 °F 69% 30.37 in 10.0 mi ESE 13.8 mph - N/A   Clear
10:35 AM 28.4 °F 15.4 °F 17.6 °F 64% 30.35 in 10.0 mi SE 19.6 mph - N/A   Clear
10:55 AM 28.4 °F 17.5 °F 17.6 °F 64% 30.35 in 10.0 mi SE 13.8 mph - N/A   Clear
11:15 AM 30.2 °F 21.3 °F 17.6 °F 60% 30.35 in 10.0 mi SE 10.4 mph - N/A   Clear
11:35 AM 32.0 °F 23.6 °F 15.8 °F 51% 30.34 in 10.0 mi SE 10.4 mph - N/A   Clear
11:55 AM 32.0 °F 24.2 °F 15.8 °F 51% 30.33 in 10.0 mi SE 9.2 mph - N/A   Clear
12:15 PM 32.0 °F 22.5 °F 15.8 °F 51% 30.31 in 10.0 mi ESE 12.7 mph - N/A   Clear
12:35 PM 32.0 °F 23.0 °F 15.8 °F 51% 30.30 in 10.0 mi SE 11.5 mph - N/A   Clear
12:55 PM 33.8 °F 26.4 °F 15.8 °F 48% 30.30 in 10.0 mi ESE 9.2 mph - N/A   Clear
1:15 PM 33.8 °F 25.3 °F 15.8 °F 48% 30.28 in 10.0 mi SE 11.5 mph - N/A   Clear
1:35 PM 33.8 °F 25.3 °F 15.8 °F 48% 30.28 in 10.0 mi SE 11.5 mph - N/A   Clear
1:55 PM 33.8 °F 25.8 °F 15.8 °F 48% 30.27 in 10.0 mi SE 10.4 mph - N/A   Clear
2:15 PM 33.8 °F 25.8 °F 15.8 °F 48% 30.26 in 10.0 mi SE 10.4 mph - N/A   Clear
2:35 PM 33.8 °F 25.8 °F 17.6 °F 52% 30.25 in 10.0 mi SE 10.4 mph - N/A   Clear
2:55 PM 32.0 °F 24.8 °F 17.6 °F 55% 30.24 in 10.0 mi SE 8.1 mph - N/A   Clear
3:15 PM 32.0 °F 24.8 °F 17.6 °F 55% 30.24 in 10.0 mi SE 8.1 mph - N/A   Clear
3:35 PM 32.0 °F 24.2 °F 17.6 °F 55% 30.24 in 10.0 mi SE 9.2 mph - N/A   Clear
3:55 PM 32.0 °F 24.2 °F 17.6 °F 55% 30.23 in 10.0 mi SE 9.2 mph - N/A   Clear
4:15 PM 32.0 °F 23.0 °F 17.6 °F 55% 30.22 in 10.0 mi ESE 11.5 mph - N/A   Clear
4:35 PM 32.0 °F 23.6 °F 17.6 °F 55% 30.21 in 10.0 mi SE 10.4 mph - N/A   Clear
4:55 PM 32.0 °F 23.6 °F 17.6 °F 55% 30.20 in 10.0 mi SE 10.4 mph - N/A   Clear
5:15 PM 32.0 °F 23.0 °F 17.6 °F 55% 30.20 in 10.0 mi SE 11.5 mph 17.3 mph N/A   Clear
5:35 PM 32.0 °F 23.0 °F 19.4 °F 60% 30.20 in 10.0 mi SE 11.5 mph - N/A   Mostly Cloudy
5:55 PM 32.0 °F 21.6 °F 19.4 °F 60% 30.17 in 10.0 mi SE 15.0 mph - N/A   Scattered Clouds
6:15 PM 32.0 °F 22.1 °F 19.4 °F 60% 30.17 in 10.0 mi SE 13.8 mph - N/A   Clear
6:35 PM 32.0 °F 21.6 °F 19.4 °F 60% 30.17 in 10.0 mi SE 15.0 mph 21.9 mph N/A   Clear
6:55 PM 32.0 °F 21.6 °F 19.4 °F 60% 30.16 in 10.0 mi SE 15.0 mph - N/A   Clear
7:15 PM 32.0 °F 21.6 °F 19.4 °F 60% 30.16 in 10.0 mi SE 15.0 mph 19.6 mph N/A   Clear
7:35 PM 32.0 °F 21.2 °F 19.4 °F 60% 30.14 in 10.0 mi SE 16.1 mph 20.7 mph N/A   Clear
7:55 PM 32.0 °F 21.2 °F 21.2 °F 64% 30.13 in 10.0 mi SE 16.1 mph - N/A   Clear
8:15 PM 32.0 °F 20.5 °F 21.2 °F 64% 30.13 in 10.0 mi SE 18.4 mph 21.9 mph N/A   Scattered Clouds
8:35 PM 32.0 °F 21.2 °F 21.2 °F 64% 30.13 in 10.0 mi SE 16.1 mph 20.7 mph N/A   Scattered Clouds
8:55 PM 32.0 °F 23.0 °F 21.2 °F 64% 30.12 in 10.0 mi SSE 11.5 mph 21.9 mph N/A   Scattered Clouds
9:15 PM 32.0 °F 21.6 °F 21.2 °F 64% 30.11 in 10.0 mi SSE 15.0 mph - N/A   Mostly Cloudy
9:35 PM 32.0 °F 22.5 °F 23.0 °F 69% 30.10 in 10.0 mi SSE 12.7 mph 19.6 mph N/A   Overcast
9:55 PM 32.0 °F 23.0 °F 23.0 °F 69% 30.10 in 10.0 mi SSE 11.5 mph - N/A   Overcast
10:15 PM 32.0 °F 22.1 °F 23.0 °F 69% 30.10 in 10.0 mi SSE 13.8 mph 19.6 mph N/A   Overcast
10:35 PM 33.8 °F 24.8 °F 23.0 °F 65% 30.09 in 10.0 mi SSE 12.7 mph - N/A   Overcast
10:55 PM 33.8 °F 25.3 °F 23.0 °F 65% 30.08 in 10.0 mi SSE 11.5 mph - N/A   Overcast
11:15 PM 33.8 °F 24.8 °F 23.0 °F 65% 30.07 in 10.0 mi SSE 12.7 mph 19.6 mph N/A   Overcast
11:35 PM 33.8 °F 24.3 °F 24.8 °F 70% 30.07 in 10.0 mi SSE 13.8 mph 21.9 mph N/A   Overcast
11:55 PM 33.8 °F 23.5 °F 24.8 °F 70% 30.07 in 10.0 mi SSE 16.1 mph - N/A   Overcast